Year,Month,Day,Hour,Minute,Value (Times are PST for windgust in km/hr)
2010,05,04,00,00,17.70
2010,05,04,00,01,16.10
2010,05,04,00,02,19.30
2010,05,04,00,03,19.30
2010,05,04,00,04,22.50
2010,05,04,00,05,20.90
2010,05,04,00,06,24.20
2010,05,04,00,07,11.30
2010,05,04,00,08,17.70
2010,05,04,00,09,8.10
2010,05,04,00,10,16.10
2010,05,04,00,11,16.10
2010,05,04,00,12,16.10
2010,05,04,00,13,14.50
2010,05,04,00,14,16.10
2010,05,04,00,15,20.90
2010,05,04,00,16,17.70
2010,05,04,00,17,20.90
2010,05,04,00,18,17.70
2010,05,04,00,19,20.90
2010,05,04,00,20,19.30
2010,05,04,00,21,16.10
2010,05,04,00,22,16.10
2010,05,04,00,23,20.90
2010,05,04,00,24,17.70
2010,05,04,00,25,14.50
2010,05,04,00,26,17.70
2010,05,04,00,27,14.50
2010,05,04,00,28,16.10
2010,05,04,00,29,9.60
2010,05,04,00,30,16.10
2010,05,04,00,31,11.30
2010,05,04,00,32,14.50
2010,05,04,00,33,16.10
2010,05,04,00,34,14.50
2010,05,04,00,35,17.70
2010,05,04,00,36,6.40
2010,05,04,00,37,16.10
2010,05,04,00,38,12.90
2010,05,04,00,39,19.30
2010,05,04,00,40,11.30
2010,05,04,00,41,11.30
2010,05,04,00,42,9.60
2010,05,04,00,43,27.40
2010,05,04,00,44,16.10
2010,05,04,00,45,22.50
2010,05,04,00,46,25.70
2010,05,04,00,47,16.10
2010,05,04,00,48,27.40
2010,05,04,00,49,16.10
2010,05,04,00,50,27.40
2010,05,04,00,51,24.20
2010,05,04,00,52,19.30
2010,05,04,00,53,16.10
2010,05,04,00,54,17.70
2010,05,04,00,55,20.90
2010,05,04,00,56,19.30
2010,05,04,00,57,12.90
2010,05,04,00,58,16.10
2010,05,04,00,59,20.90
2010,05,04,01,00,11.30
2010,05,04,01,01,14.50
2010,05,04,01,02,16.10
2010,05,04,01,03,14.50
2010,05,04,01,04,17.70
2010,05,04,01,05,17.70
2010,05,04,01,06,22.50
2010,05,04,01,07,11.30
2010,05,04,01,08,11.30
2010,05,04,01,09,22.50
2010,05,04,01,10,17.70
2010,05,04,01,11,14.50
2010,05,04,01,12,14.50
2010,05,04,01,13,16.10
2010,05,04,01,14,12.90
2010,05,04,01,15,17.70
2010,05,04,01,16,14.50
2010,05,04,01,17,20.90
2010,05,04,01,18,20.90
2010,05,04,01,19,16.10
2010,05,04,01,20,19.30
2010,05,04,01,21,16.10
2010,05,04,01,22,16.10
2010,05,04,01,23,19.30
2010,05,04,01,24,16.10
2010,05,04,01,25,14.50
2010,05,04,01,26,17.70
2010,05,04,01,27,11.30
2010,05,04,01,28,9.60
2010,05,04,01,29,14.50
2010,05,04,01,30,11.30
2010,05,04,01,31,14.50
2010,05,04,01,32,16.10
2010,05,04,01,33,9.60
2010,05,04,01,34,11.30
2010,05,04,01,35,12.90
2010,05,04,01,36,19.30
2010,05,04,01,37,19.30
2010,05,04,01,38,20.90
2010,05,04,01,39,16.10
2010,05,04,01,40,16.10
2010,05,04,01,41,16.10
2010,05,04,01,42,17.70
2010,05,04,01,43,11.30
2010,05,04,01,44,17.70
2010,05,04,01,45,14.50
2010,05,04,01,46,14.50
2010,05,04,01,47,9.60
2010,05,04,01,48,11.30
2010,05,04,01,49,11.30
2010,05,04,01,50,14.50
2010,05,04,01,51,14.50
2010,05,04,01,52,11.30
2010,05,04,01,53,12.90
2010,05,04,01,54,9.60
2010,05,04,01,55,11.30
2010,05,04,01,56,9.60
2010,05,04,01,57,14.50
2010,05,04,01,58,11.30
2010,05,04,01,59,14.50
2010,05,04,02,00,17.70
2010,05,04,02,01,16.10
2010,05,04,02,02,16.10
2010,05,04,02,03,16.10
2010,05,04,02,04,14.50
2010,05,04,02,05,8.10
2010,05,04,02,06,16.10
2010,05,04,02,07,16.10
2010,05,04,02,08,17.70
2010,05,04,02,09,17.70
2010,05,04,02,10,14.50
2010,05,04,02,11,17.70
2010,05,04,02,12,17.70
2010,05,04,02,13,16.10
2010,05,04,02,14,16.10
2010,05,04,02,15,19.30
2010,05,04,02,16,16.10
2010,05,04,02,17,17.70
2010,05,04,02,18,16.10
2010,05,04,02,19,14.50
2010,05,04,02,20,12.90
2010,05,04,02,21,14.50
2010,05,04,02,22,17.70
2010,05,04,02,23,19.30
2010,05,04,02,24,11.30
2010,05,04,02,25,14.50
2010,05,04,02,26,12.90
2010,05,04,02,27,9.60
2010,05,04,02,28,12.90
2010,05,04,02,29,11.30
2010,05,04,02,30,20.90
2010,05,04,02,31,19.30
2010,05,04,02,32,17.70
2010,05,04,02,33,17.70
2010,05,04,02,34,20.90
2010,05,04,02,35,19.30
2010,05,04,02,36,11.30
2010,05,04,02,37,11.30
2010,05,04,02,38,16.10
2010,05,04,02,39,17.70
2010,05,04,02,40,16.10
2010,05,04,02,41,9.60
2010,05,04,02,42,12.90
2010,05,04,02,43,17.70
2010,05,04,02,44,12.90
2010,05,04,02,45,8.10
2010,05,04,02,46,8.10
2010,05,04,02,47,14.50
2010,05,04,02,48,16.10
2010,05,04,02,49,17.70
2010,05,04,02,50,11.30
2010,05,04,02,51,8.10
2010,05,04,02,52,9.60
2010,05,04,02,53,11.30
2010,05,04,02,54,16.10
2010,05,04,02,55,14.50
2010,05,04,02,56,16.10
2010,05,04,02,57,14.50
2010,05,04,02,58,16.10
2010,05,04,02,59,16.10
2010,05,04,03,00,17.70
2010,05,04,03,01,14.50
2010,05,04,03,02,14.50
2010,05,04,03,03,16.10
2010,05,04,03,04,16.10
2010,05,04,03,05,12.90
2010,05,04,03,06,12.90
2010,05,04,03,07,16.10
2010,05,04,03,08,16.10
2010,05,04,03,09,16.10
2010,05,04,03,10,16.10
2010,05,04,03,11,16.10
2010,05,04,03,12,16.10
2010,05,04,03,13,14.50
2010,05,04,03,14,19.30
2010,05,04,03,15,14.50
2010,05,04,03,16,16.10
2010,05,04,03,17,12.90
2010,05,04,03,18,14.50
2010,05,04,03,19,9.60
2010,05,04,03,20,14.50
2010,05,04,03,21,14.50
2010,05,04,03,22,12.90
2010,05,04,03,23,22.50
2010,05,04,03,24,17.70
2010,05,04,03,25,19.30
2010,05,04,03,26,20.90
2010,05,04,03,27,14.50
2010,05,04,03,28,16.10
2010,05,04,03,29,9.60
2010,05,04,03,30,17.70
2010,05,04,03,31,11.30
2010,05,04,03,32,14.50
2010,05,04,03,33,8.10
2010,05,04,03,34,17.70
2010,05,04,03,35,11.30
2010,05,04,03,36,14.50
2010,05,04,03,37,17.70
2010,05,04,03,38,11.30
2010,05,04,03,39,16.10
2010,05,04,03,40,12.90
2010,05,04,03,41,14.50
2010,05,04,03,42,19.30
2010,05,04,03,43,14.50
2010,05,04,03,44,20.90
2010,05,04,03,45,19.30
2010,05,04,03,46,19.30
2010,05,04,03,47,17.70
2010,05,04,03,48,9.60
2010,05,04,03,49,16.10
2010,05,04,03,50,20.90
2010,05,04,03,51,16.10
2010,05,04,03,52,17.70
2010,05,04,03,53,17.70
2010,05,04,03,54,27.40
2010,05,04,03,55,20.90
2010,05,04,03,56,19.30
2010,05,04,03,57,17.70
2010,05,04,03,58,17.70
2010,05,04,03,59,17.70
2010,05,04,04,00,17.70
2010,05,04,04,01,8.10
2010,05,04,04,02,16.10
2010,05,04,04,03,16.10
2010,05,04,04,04,16.10
2010,05,04,04,05,9.60
2010,05,04,04,06,8.10
2010,05,04,04,07,8.10
2010,05,04,04,08,9.60
2010,05,04,04,09,17.70
2010,05,04,04,10,20.90
2010,05,04,04,11,14.50
2010,05,04,04,12,16.10
2010,05,04,04,13,9.60
2010,05,04,04,14,17.70
2010,05,04,04,15,19.30
2010,05,04,04,16,16.10
2010,05,04,04,17,19.30
2010,05,04,04,18,16.10
2010,05,04,04,19,6.40
2010,05,04,04,20,6.40
2010,05,04,04,21,11.30
2010,05,04,04,22,11.30
2010,05,04,04,23,16.10
2010,05,04,04,24,14.50
2010,05,04,04,25,9.60
2010,05,04,04,26,11.30
2010,05,04,04,27,8.10
2010,05,04,04,28,9.60
2010,05,04,04,29,6.40
2010,05,04,04,30,3.20
2010,05,04,04,31,4.80
2010,05,04,04,32,6.40
2010,05,04,04,33,6.40
2010,05,04,04,34,8.10
2010,05,04,04,35,6.40
2010,05,04,04,36,6.40
2010,05,04,04,37,8.10
2010,05,04,04,38,8.10
2010,05,04,04,39,8.10
2010,05,04,04,40,6.40
2010,05,04,04,41,4.80
2010,05,04,04,42,11.30
2010,05,04,04,43,12.90
2010,05,04,04,44,9.60
2010,05,04,04,45,6.40
2010,05,04,04,46,11.30
2010,05,04,04,47,12.90
2010,05,04,04,48,11.30
2010,05,04,04,49,9.60
2010,05,04,04,50,9.60
2010,05,04,04,51,9.60
2010,05,04,04,52,19.30
2010,05,04,04,53,19.30
2010,05,04,04,54,8.10
2010,05,04,04,55,11.30
2010,05,04,04,56,9.60
2010,05,04,04,57,12.90
2010,05,04,04,58,9.60
2010,05,04,04,59,17.70
2010,05,04,05,00,19.30
2010,05,04,05,01,14.50
2010,05,04,05,02,14.50
2010,05,04,05,03,16.10
2010,05,04,05,04,11.30
2010,05,04,05,05,11.30
2010,05,04,05,06,11.30
2010,05,04,05,07,16.10
2010,05,04,05,08,9.60
2010,05,04,05,09,16.10
2010,05,04,05,10,16.10
2010,05,04,05,11,17.70
2010,05,04,05,12,14.50
2010,05,04,05,13,9.60
2010,05,04,05,14,6.40
2010,05,04,05,15,6.40
2010,05,04,05,16,9.60
2010,05,04,05,17,12.90
2010,05,04,05,18,12.90
2010,05,04,05,19,11.30
2010,05,04,05,20,11.30
2010,05,04,05,21,14.50
2010,05,04,05,22,17.70
2010,05,04,05,23,14.50
2010,05,04,05,24,9.60
2010,05,04,05,25,8.10
2010,05,04,05,26,11.30
2010,05,04,05,27,9.60
2010,05,04,05,28,8.10
2010,05,04,05,29,14.50
2010,05,04,05,30,8.10
2010,05,04,05,31,8.10
2010,05,04,05,32,6.40
2010,05,04,05,33,14.50
2010,05,04,05,34,16.10
2010,05,04,05,35,12.90
2010,05,04,05,36,14.50
2010,05,04,05,37,11.30
2010,05,04,05,38,11.30
2010,05,04,05,39,12.90
2010,05,04,05,40,11.30
2010,05,04,05,41,14.50
2010,05,04,05,42,11.30
2010,05,04,05,43,8.10
2010,05,04,05,44,4.80
2010,05,04,05,45,4.80
2010,05,04,05,46,4.80
2010,05,04,05,47,3.20
2010,05,04,05,48,8.10
2010,05,04,05,49,19.30
2010,05,04,05,50,14.50
2010,05,04,05,51,11.30
2010,05,04,05,52,17.70
2010,05,04,05,53,9.60
2010,05,04,05,54,11.30
2010,05,04,05,55,14.50
2010,05,04,05,56,11.30
2010,05,04,05,57,14.50
2010,05,04,05,58,17.70
2010,05,04,05,59,11.30
2010,05,04,06,00,17.70
2010,05,04,06,01,14.50
2010,05,04,06,02,20.90
2010,05,04,06,03,19.30
2010,05,04,06,04,17.70
2010,05,04,06,05,16.10
2010,05,04,06,06,12.90
2010,05,04,06,07,24.20
2010,05,04,06,08,17.70
2010,05,04,06,09,9.60
2010,05,04,06,10,9.60
2010,05,04,06,11,11.30
2010,05,04,06,12,14.50
2010,05,04,06,13,6.40
2010,05,04,06,14,6.40
2010,05,04,06,15,6.40
2010,05,04,06,16,4.80
2010,05,04,06,17,6.40
2010,05,04,06,18,8.10
2010,05,04,06,19,9.60
2010,05,04,06,20,11.30
2010,05,04,06,21,8.10
2010,05,04,06,22,6.40
2010,05,04,06,23,8.10
2010,05,04,06,24,4.80
2010,05,04,06,25,8.10
2010,05,04,06,26,9.60
2010,05,04,06,27,9.60
2010,05,04,06,28,4.80
2010,05,04,06,29,11.30
2010,05,04,06,30,9.60
2010,05,04,06,31,8.10
2010,05,04,06,32,9.60
2010,05,04,06,33,12.90
2010,05,04,06,34,11.30
2010,05,04,06,35,11.30
2010,05,04,06,36,8.10
2010,05,04,06,37,6.40
2010,05,04,06,38,9.60
2010,05,04,06,39,8.10
2010,05,04,06,40,8.10
2010,05,04,06,41,6.40
2010,05,04,06,42,6.40
2010,05,04,06,43,6.40
2010,05,04,06,44,6.40
2010,05,04,06,45,8.10
2010,05,04,06,46,8.10
2010,05,04,06,47,8.10
2010,05,04,06,48,11.30
2010,05,04,06,49,9.60
2010,05,04,06,50,14.50
2010,05,04,06,51,6.40
2010,05,04,06,52,6.40
2010,05,04,06,53,6.40
2010,05,04,06,54,9.60
2010,05,04,06,55,9.60
2010,05,04,06,56,6.40
2010,05,04,06,57,9.60
2010,05,04,06,58,1.60
2010,05,04,06,59,3.20
2010,05,04,07,00,4.80
2010,05,04,07,01,3.20
2010,05,04,07,02,3.20
2010,05,04,07,03,3.20
2010,05,04,07,04,3.20
2010,05,04,07,05,3.20
2010,05,04,07,06,6.40
2010,05,04,07,07,8.10
2010,05,04,07,08,9.60
2010,05,04,07,09,11.30
2010,05,04,07,10,8.10
2010,05,04,07,11,6.40
2010,05,04,07,12,4.80
2010,05,04,07,13,8.10
2010,05,04,07,14,6.40
2010,05,04,07,15,6.40
2010,05,04,07,16,6.40
2010,05,04,07,17,4.80
2010,05,04,07,18,3.20
2010,05,04,07,19,6.40
2010,05,04,07,20,3.20
2010,05,04,07,21,4.80
2010,05,04,07,22,4.80
2010,05,04,07,23,6.40
2010,05,04,07,24,4.80
2010,05,04,07,25,3.20
2010,05,04,07,26,4.80
2010,05,04,07,27,3.20
2010,05,04,07,28,8.10
2010,05,04,07,29,8.10
2010,05,04,07,30,4.80
2010,05,04,07,31,12.90
2010,05,04,07,32,11.30
2010,05,04,07,33,11.30
2010,05,04,07,34,14.50
2010,05,04,07,35,9.60
2010,05,04,07,36,12.90
2010,05,04,07,37,16.10
2010,05,04,07,38,16.10
2010,05,04,07,39,14.50
2010,05,04,07,40,9.60
2010,05,04,07,41,17.70
2010,05,04,07,42,17.70
2010,05,04,07,43,17.70
2010,05,04,07,44,19.30
2010,05,04,07,45,20.90
2010,05,04,07,46,22.50
2010,05,04,07,47,22.50
2010,05,04,07,48,24.20
2010,05,04,07,49,22.50
2010,05,04,07,50,16.10
2010,05,04,07,51,27.40
2010,05,04,07,52,19.30
2010,05,04,07,53,22.50
2010,05,04,07,54,24.20
2010,05,04,07,55,24.20
2010,05,04,07,56,12.90
2010,05,04,07,57,16.10
2010,05,04,07,58,11.30
2010,05,04,07,59,17.70
2010,05,04,08,00,17.70
2010,05,04,08,01,16.10
2010,05,04,08,02,16.10
2010,05,04,08,03,16.10
2010,05,04,08,04,17.70
2010,05,04,08,05,27.40
2010,05,04,08,06,17.70
2010,05,04,08,07,22.50
2010,05,04,08,08,17.70
2010,05,04,08,09,9.60
2010,05,04,08,10,22.50
2010,05,04,08,11,20.90
2010,05,04,08,12,27.40
2010,05,04,08,13,14.50
2010,05,04,08,14,19.30
2010,05,04,08,15,20.90
2010,05,04,08,16,20.90
2010,05,04,08,17,22.50
2010,05,04,08,18,22.50
2010,05,04,08,19,17.70
2010,05,04,08,20,19.30
2010,05,04,08,21,16.10
2010,05,04,08,22,19.30
2010,05,04,08,23,17.70
2010,05,04,08,24,20.90
2010,05,04,08,25,20.90
2010,05,04,08,26,25.70
2010,05,04,08,27,24.20
2010,05,04,08,28,22.50
2010,05,04,08,29,19.30
2010,05,04,08,30,16.10
2010,05,04,08,31,22.50
2010,05,04,08,32,24.20
2010,05,04,08,33,24.20
2010,05,04,08,34,24.20
2010,05,04,08,35,24.20
2010,05,04,08,36,24.20
2010,05,04,08,37,19.30
2010,05,04,08,38,16.10
2010,05,04,08,39,19.30
2010,05,04,08,40,20.90
2010,05,04,08,41,17.70
2010,05,04,08,42,25.70
2010,05,04,08,43,17.70
2010,05,04,08,44,16.10
2010,05,04,08,45,20.90
2010,05,04,08,46,20.90
2010,05,04,08,47,17.70
2010,05,04,08,48,24.20
2010,05,04,08,49,20.90
2010,05,04,08,50,20.90
2010,05,04,08,51,22.50
2010,05,04,08,52,19.30
2010,05,04,08,53,11.30
2010,05,04,08,54,16.10
2010,05,04,08,55,14.50
2010,05,04,08,56,19.30
2010,05,04,08,57,16.10
2010,05,04,08,58,9.60
2010,05,04,08,59,6.40
2010,05,04,09,00,12.90
2010,05,04,09,01,20.90
2010,05,04,09,02,22.50
2010,05,04,09,03,16.10
2010,05,04,09,04,16.10
2010,05,04,09,05,16.10
2010,05,04,09,06,24.20
2010,05,04,09,07,22.50
2010,05,04,09,08,19.30
2010,05,04,09,09,25.70
2010,05,04,09,10,22.50
2010,05,04,09,11,25.70
2010,05,04,09,12,20.90
2010,05,04,09,13,22.50
2010,05,04,09,14,24.20
2010,05,04,09,15,25.70
2010,05,04,09,16,20.90
2010,05,04,09,17,27.40
2010,05,04,09,18,22.50
2010,05,04,09,19,25.70
2010,05,04,09,20,25.70
2010,05,04,09,21,22.50
2010,05,04,09,22,32.20
2010,05,04,09,23,32.20
2010,05,04,09,24,32.20
2010,05,04,09,25,25.70
2010,05,04,09,26,22.50
2010,05,04,09,27,30.60
2010,05,04,09,28,33.80
2010,05,04,09,29,33.80
2010,05,04,09,30,29.00
2010,05,04,09,31,32.20
2010,05,04,09,32,32.20
2010,05,04,09,33,27.40
2010,05,04,09,34,27.40
2010,05,04,09,35,27.40
2010,05,04,09,36,25.70
2010,05,04,09,37,25.70
2010,05,04,09,38,20.90
2010,05,04,09,39,22.50
2010,05,04,09,40,22.50
2010,05,04,09,41,29.00
2010,05,04,09,42,27.40
2010,05,04,09,43,24.20
2010,05,04,09,44,29.00
2010,05,04,09,45,24.20
2010,05,04,09,46,25.70
2010,05,04,09,47,27.40
2010,05,04,09,48,25.70
2010,05,04,09,49,22.50
2010,05,04,09,50,20.90
2010,05,04,09,51,27.40
2010,05,04,09,52,27.40
2010,05,04,09,53,22.50
2010,05,04,09,54,25.70
2010,05,04,09,55,29.00
2010,05,04,09,56,27.40
2010,05,04,09,57,30.60
2010,05,04,09,58,20.90
2010,05,04,09,59,22.50
2010,05,04,10,00,27.40
2010,05,04,10,01,25.70
2010,05,04,10,02,25.70
2010,05,04,10,03,22.50
2010,05,04,10,04,20.90
2010,05,04,10,05,19.30
2010,05,04,10,06,19.30
2010,05,04,10,07,24.20
2010,05,04,10,08,30.60
2010,05,04,10,09,25.70
2010,05,04,10,10,25.70
2010,05,04,10,11,25.70
2010,05,04,10,12,24.20
2010,05,04,10,13,22.50
2010,05,04,10,14,25.70
2010,05,04,10,15,17.70
2010,05,04,10,16,25.70
2010,05,04,10,17,25.70
2010,05,04,10,18,27.40
2010,05,04,10,19,19.30
2010,05,04,10,20,17.70
2010,05,04,10,21,29.00
2010,05,04,10,22,19.30
2010,05,04,10,23,27.40
2010,05,04,10,24,25.70
2010,05,04,10,25,29.00
2010,05,04,10,26,29.00
2010,05,04,10,27,32.20
2010,05,04,10,28,27.40
2010,05,04,10,29,27.40
2010,05,04,10,30,22.50
2010,05,04,10,31,27.40
2010,05,04,10,32,20.90
2010,05,04,10,33,22.50
2010,05,04,10,34,19.30
2010,05,04,10,35,30.60
2010,05,04,10,36,25.70
2010,05,04,10,37,27.40
2010,05,04,10,38,20.90
2010,05,04,10,39,27.40
2010,05,04,10,40,25.70
2010,05,04,10,41,19.30
2010,05,04,10,42,29.00
2010,05,04,10,43,24.20
2010,05,04,10,44,27.40
2010,05,04,10,45,24.20
2010,05,04,10,46,25.70
2010,05,04,10,47,24.20
2010,05,04,10,48,32.20
2010,05,04,10,49,25.70
2010,05,04,10,50,22.50
2010,05,04,10,51,25.70
2010,05,04,10,52,25.70
2010,05,04,10,53,22.50
2010,05,04,10,54,29.00
2010,05,04,10,55,33.80
2010,05,04,10,56,37.00
2010,05,04,10,57,32.20
2010,05,04,10,58,32.20
2010,05,04,10,59,29.00
2010,05,04,11,00,22.50
2010,05,04,11,01,22.50
2010,05,04,11,02,24.20
2010,05,04,11,03,17.70
2010,05,04,11,04,19.30
2010,05,04,11,05,20.90
2010,05,04,11,06,25.70
2010,05,04,11,07,25.70
2010,05,04,11,08,8.10
2010,05,04,11,09,19.30
2010,05,04,11,10,17.70
2010,05,04,11,11,11.30
2010,05,04,11,12,19.30
2010,05,04,11,13,27.40
2010,05,04,11,14,19.30
2010,05,04,11,15,27.40
2010,05,04,11,16,19.30
2010,05,04,11,17,24.20
2010,05,04,11,18,25.70
2010,05,04,11,19,17.70
2010,05,04,11,20,20.90
2010,05,04,11,21,27.40
2010,05,04,11,22,17.70
2010,05,04,11,23,25.70
2010,05,04,11,24,25.70
2010,05,04,11,25,27.40
2010,05,04,11,26,25.70
2010,05,04,11,27,19.30
2010,05,04,11,28,20.90
2010,05,04,11,29,17.70
2010,05,04,11,30,22.50
2010,05,04,11,31,24.20
2010,05,04,11,32,24.20
2010,05,04,11,33,16.10
2010,05,04,11,34,19.30
2010,05,04,11,35,22.50
2010,05,04,11,36,27.40
2010,05,04,11,37,19.30
2010,05,04,11,38,27.40
2010,05,04,11,39,27.40
2010,05,04,11,40,22.50
2010,05,04,11,41,25.70
2010,05,04,11,42,22.50
2010,05,04,11,43,25.70
2010,05,04,11,44,29.00
2010,05,04,11,45,24.20
2010,05,04,11,46,19.30
2010,05,04,11,47,22.50
2010,05,04,11,48,24.20
2010,05,04,11,49,22.50
2010,05,04,11,50,24.20
2010,05,04,11,51,17.70
2010,05,04,11,52,25.70
2010,05,04,11,53,24.20
2010,05,04,11,54,22.50
2010,05,04,11,55,22.50
2010,05,04,11,56,22.50
2010,05,04,11,57,20.90
2010,05,04,11,58,22.50
2010,05,04,11,59,20.90
2010,05,04,12,00,20.90
2010,05,04,12,01,22.50
2010,05,04,12,02,22.50
2010,05,04,12,03,24.20
2010,05,04,12,04,19.30
2010,05,04,12,05,20.90
2010,05,04,12,06,25.70
2010,05,04,12,07,24.20
2010,05,04,12,08,22.50
2010,05,04,12,09,27.40
2010,05,04,12,10,19.30
2010,05,04,12,11,30.60
2010,05,04,12,12,19.30
2010,05,04,12,13,20.90
2010,05,04,12,14,22.50
2010,05,04,12,15,20.90
2010,05,04,12,16,19.30
2010,05,04,12,17,20.90
2010,05,04,12,18,25.70
2010,05,04,12,19,19.30
2010,05,04,12,20,11.30
2010,05,04,12,21,8.10
2010,05,04,12,22,17.70
2010,05,04,12,23,20.90
2010,05,04,12,24,24.20
2010,05,04,12,25,27.40
2010,05,04,12,26,24.20
2010,05,04,12,27,24.20
2010,05,04,12,28,17.70
2010,05,04,12,29,27.40
2010,05,04,12,30,22.50
2010,05,04,12,31,19.30
2010,05,04,12,32,20.90
2010,05,04,12,33,20.90
2010,05,04,12,34,27.40
2010,05,04,12,35,19.30
2010,05,04,12,36,30.60
2010,05,04,12,37,27.40
2010,05,04,12,38,22.50
2010,05,04,12,39,20.90
2010,05,04,12,40,20.90
2010,05,04,12,41,20.90
2010,05,04,12,42,19.30
2010,05,04,12,43,17.70
2010,05,04,12,44,20.90
2010,05,04,12,45,14.50
2010,05,04,12,46,17.70
2010,05,04,12,47,25.70
2010,05,04,12,48,16.10
2010,05,04,12,49,16.10
2010,05,04,12,50,19.30
2010,05,04,12,51,17.70
2010,05,04,12,52,17.70
2010,05,04,12,53,20.90
2010,05,04,12,54,17.70
2010,05,04,12,55,17.70
2010,05,04,12,56,16.10
2010,05,04,12,57,9.60
2010,05,04,12,58,9.60
2010,05,04,12,59,16.10
2010,05,04,13,00,14.50
2010,05,04,13,01,11.30
2010,05,04,13,02,4.80
2010,05,04,13,03,9.60
2010,05,04,13,04,11.30
2010,05,04,13,05,11.30
2010,05,04,13,06,12.90
2010,05,04,13,07,16.10
2010,05,04,13,08,11.30
2010,05,04,13,09,8.10
2010,05,04,13,10,14.50
2010,05,04,13,11,11.30
2010,05,04,13,12,12.90
2010,05,04,13,13,11.30
2010,05,04,13,14,8.10
2010,05,04,13,15,11.30
2010,05,04,13,16,6.40
2010,05,04,13,17,9.60
2010,05,04,13,18,11.30
2010,05,04,13,19,8.10
2010,05,04,13,20,12.90
2010,05,04,13,21,9.60
2010,05,04,13,22,6.40
2010,05,04,13,23,4.80
2010,05,04,13,24,6.40
2010,05,04,13,25,6.40
2010,05,04,13,26,9.60
2010,05,04,13,27,9.60
2010,05,04,13,28,8.10
2010,05,04,13,29,11.30
2010,05,04,13,30,16.10
2010,05,04,13,31,16.10
2010,05,04,13,32,9.60
2010,05,04,13,33,9.60
2010,05,04,13,34,8.10
2010,05,04,13,35,16.10
2010,05,04,13,36,14.50
2010,05,04,13,37,11.30
2010,05,04,13,38,17.70
2010,05,04,13,39,17.70
2010,05,04,13,40,8.10
2010,05,04,13,41,16.10
2010,05,04,13,42,20.90
2010,05,04,13,43,19.30
2010,05,04,13,44,19.30
2010,05,04,13,45,20.90
2010,05,04,13,46,16.10
2010,05,04,13,47,16.10
2010,05,04,13,48,6.40
2010,05,04,13,49,8.10
2010,05,04,13,50,16.10
2010,05,04,13,51,19.30
2010,05,04,13,52,11.30
2010,05,04,13,53,17.70
2010,05,04,13,54,17.70
2010,05,04,13,55,19.30
2010,05,04,13,56,20.90
2010,05,04,13,57,17.70
2010,05,04,13,58,17.70
2010,05,04,13,59,19.30
2010,05,04,14,00,17.70
2010,05,04,14,01,17.70
2010,05,04,14,02,19.30
2010,05,04,14,03,20.90
2010,05,04,14,04,22.50
2010,05,04,14,05,9.60
2010,05,04,14,06,12.90
2010,05,04,14,07,16.10
2010,05,04,14,08,16.10
2010,05,04,14,09,11.30
2010,05,04,14,10,14.50
2010,05,04,14,11,12.90
2010,05,04,14,12,14.50
2010,05,04,14,13,19.30
2010,05,04,14,14,16.10
2010,05,04,14,15,20.90
2010,05,04,14,16,17.70
2010,05,04,14,17,9.60
2010,05,04,14,18,11.30
2010,05,04,14,19,20.90
2010,05,04,14,20,19.30
2010,05,04,14,21,22.50
2010,05,04,14,22,22.50
2010,05,04,14,23,20.90
2010,05,04,14,24,16.10
2010,05,04,14,25,17.70
2010,05,04,14,26,20.90
2010,05,04,14,27,14.50
2010,05,04,14,28,22.50
2010,05,04,14,29,22.50
2010,05,04,14,30,27.40
2010,05,04,14,31,24.20
2010,05,04,14,32,20.90
2010,05,04,14,33,20.90
2010,05,04,14,34,22.50
2010,05,04,14,35,16.10
2010,05,04,14,36,22.50
2010,05,04,14,37,24.20
2010,05,04,14,38,19.30
2010,05,04,14,39,11.30
2010,05,04,14,40,16.10
2010,05,04,14,41,17.70
2010,05,04,14,42,20.90
2010,05,04,14,43,22.50
2010,05,04,14,44,14.50
2010,05,04,14,45,27.40
2010,05,04,14,46,27.40
2010,05,04,14,47,27.40
2010,05,04,14,48,19.30
2010,05,04,14,49,22.50
2010,05,04,14,50,22.50
2010,05,04,14,51,24.20
2010,05,04,14,52,24.20
2010,05,04,14,53,22.50
2010,05,04,14,54,22.50
2010,05,04,14,55,12.90
2010,05,04,14,56,19.30
2010,05,04,14,57,25.70
2010,05,04,14,58,22.50
2010,05,04,14,59,20.90
2010,05,04,15,00,19.30
2010,05,04,15,01,20.90
2010,05,04,15,02,22.50
2010,05,04,15,03,20.90
2010,05,04,15,04,17.70
2010,05,04,15,05,22.50
2010,05,04,15,06,25.70
2010,05,04,15,07,27.40
2010,05,04,15,08,20.90
2010,05,04,15,09,14.50
2010,05,04,15,10,17.70
2010,05,04,15,11,17.70
2010,05,04,15,12,17.70
2010,05,04,15,13,14.50
2010,05,04,15,14,9.60
2010,05,04,15,15,16.10
2010,05,04,15,16,24.20
2010,05,04,15,17,27.40
2010,05,04,15,18,17.70
2010,05,04,15,19,25.70
2010,05,04,15,20,19.30
2010,05,04,15,21,24.20
2010,05,04,15,22,25.70
2010,05,04,15,23,19.30
2010,05,04,15,24,27.40
2010,05,04,15,25,25.70
2010,05,04,15,26,20.90
2010,05,04,15,27,29.00
2010,05,04,15,28,16.10
2010,05,04,15,29,27.40
2010,05,04,15,30,20.90
2010,05,04,15,31,20.90
2010,05,04,15,32,24.20
2010,05,04,15,33,22.50
2010,05,04,15,34,25.70
2010,05,04,15,35,24.20
2010,05,04,15,36,25.70
2010,05,04,15,37,17.70
2010,05,04,15,38,20.90
2010,05,04,15,39,20.90
2010,05,04,15,40,24.20
2010,05,04,15,41,19.30
2010,05,04,15,42,22.50
2010,05,04,15,43,22.50
2010,05,04,15,44,19.30
2010,05,04,15,45,12.90
2010,05,04,15,46,22.50
2010,05,04,15,47,24.20
2010,05,04,15,48,19.30
2010,05,04,15,49,25.70
2010,05,04,15,50,24.20
2010,05,04,15,51,24.20
2010,05,04,15,52,24.20
2010,05,04,15,53,16.10
2010,05,04,15,54,20.90
2010,05,04,15,55,17.70
2010,05,04,15,56,19.30
2010,05,04,15,57,16.10
2010,05,04,15,58,25.70
2010,05,04,15,59,27.40
2010,05,04,16,00,27.40
2010,05,04,16,01,20.90
2010,05,04,16,02,32.20
2010,05,04,16,03,24.20
2010,05,04,16,04,25.70
2010,05,04,16,05,25.70
2010,05,04,16,06,25.70
2010,05,04,16,07,20.90
2010,05,04,16,08,25.70
2010,05,04,16,09,17.70
2010,05,04,16,10,24.20
2010,05,04,16,11,11.30
2010,05,04,16,12,20.90
2010,05,04,16,13,24.20
2010,05,04,16,14,19.30
2010,05,04,16,15,22.50
2010,05,04,16,16,22.50
2010,05,04,16,17,20.90
2010,05,04,16,18,16.10
2010,05,04,16,19,16.10
2010,05,04,16,20,25.70
2010,05,04,16,21,27.40
2010,05,04,16,22,24.20
2010,05,04,16,23,24.20
2010,05,04,16,24,27.40
2010,05,04,16,25,24.20
2010,05,04,16,26,20.90
2010,05,04,16,27,27.40
2010,05,04,16,28,29.00
2010,05,04,16,29,25.70
2010,05,04,16,30,24.20
2010,05,04,16,31,27.40
2010,05,04,16,32,29.00
2010,05,04,16,33,22.50
2010,05,04,16,34,22.50
2010,05,04,16,35,25.70
2010,05,04,16,36,22.50
2010,05,04,16,37,27.40
2010,05,04,16,38,19.30
2010,05,04,16,39,17.70
2010,05,04,16,40,27.40
2010,05,04,16,41,20.90
2010,05,04,16,42,16.10
2010,05,04,16,43,20.90
2010,05,04,16,44,19.30
2010,05,04,16,45,25.70
2010,05,04,16,46,24.20
2010,05,04,16,47,25.70
2010,05,04,16,48,24.20
2010,05,04,16,49,20.90
2010,05,04,16,50,19.30
2010,05,04,16,51,17.70
2010,05,04,16,52,11.30
2010,05,04,16,53,14.50
2010,05,04,16,54,16.10
2010,05,04,16,55,17.70
2010,05,04,16,56,19.30
2010,05,04,16,57,24.20
2010,05,04,16,58,19.30
2010,05,04,16,59,27.40
2010,05,04,17,00,24.20
2010,05,04,17,01,22.50
2010,05,04,17,02,17.70
2010,05,04,17,03,17.70
2010,05,04,17,04,11.30
2010,05,04,17,05,17.70
2010,05,04,17,06,11.30
2010,05,04,17,07,19.30
2010,05,04,17,08,19.30
2010,05,04,17,09,14.50
2010,05,04,17,10,20.90
2010,05,04,17,11,16.10
2010,05,04,17,12,17.70
2010,05,04,17,13,19.30
2010,05,04,17,14,25.70
2010,05,04,17,15,24.20
2010,05,04,17,16,20.90
2010,05,04,17,17,19.30
2010,05,04,17,18,16.10
2010,05,04,17,19,16.10
2010,05,04,17,20,14.50
2010,05,04,17,21,12.90
2010,05,04,17,22,9.60
2010,05,04,17,23,17.70
2010,05,04,17,24,14.50
2010,05,04,17,25,12.90
2010,05,04,17,26,16.10
2010,05,04,17,27,12.90